SCP
0 0 0 0 0 0 0 0 0 0 0 0 0 0 0 0 0 0 0 0 0 0 0 0 0 0 0 0 0 0 0 0 0 0 0 0 0 0
0 0 0 0 0 0 0 0 0 0 0 0 0 0 0 0 0 0 0 0 0 0 0 0 0 0 0 0 0 0 0 0 0 0 0 0 0 0
0 0 0 0 0 0 0 0 0 0 0 0 0 0 0 0 0 0 0 0 0 0 0 0 0 0 0 0 0 0 0 0 0 0 0 0 0 0
0 0 0 0 0 0 0 0 0 0 0 0 0 0 0 0 0 0 0 0 0 0 0 0 0 0 0 0 0 0 0 0 0 0 0 0 0 0
0 0 0 0 0 0 0 0 0 0 0 0 0 0 0 0 0 0 0 0 0 0 0 0 0 0 0 0 0 0 0 0 0 0 0 0 0 0
0 0 0 0 0 0 0 0 0 0 0 0 0 0 0 0 0 0 0 0 0 0 0 0 0 0 0 0 0 0 0 0 0 0 0 0 0 0
0 0 0 0 0 0 0 0 0 0 0 0 0 0 0 0 0 0 0 0 0 0 0 0 0 0 0 0 0 0 0 0 0 0 0 0 0 0
0 0 0 0 0 0 0 0 0 0 0 0 0 0 0 0 0 0 0 0 0 0 0 0 0 0 0 0 0 0 0 0 0 0 0 0 0 0
0 0 0 0 0 0 0 0 0 0 0 0 0 0 0 0 0 0 0 0 0 0 0 0 0 0 0 0 0 0 0 0 0 0 0 0 0 0
0 0 0 0 0 0 0 0 0 0 0 0 0 0 0 0 0 0 0 0 0 0 0 0 0 0 0 0 0 0 0 0 0 0 0 0 0 0
0 0 0 0 0 0 0 0 0 0 0 0 0 0 0 0 0 0 0 0 0 0 0 0 0 0 0 0 0 0 0 0 0 0 0 0 0 0
0 0 0 0 0 0 0 0 0 0 0 0 0 0 0 0 0 0 0 0 0 0 0 0 0 0 0 0 0 0 0 0 0 0 0 0 0 0
0 0 0 0 0 0 0 0 0 0 0 0 0 0 0 0 0 0 0 0 0 0 0 0 0 0 0 0 0 0 0 0 0 0 0 0 0 0
0 0 0 0 0 0 0 0 0 0 0 0 0 0 0 0 0 0 0 0 0 0 0 0 0 0 0 0 0 0 0 0 0 0 0 0 0 0
0 0 0 0 0 0 0 0 0 0 0 0 0 0 0 0 0 0 0 0 0 0 0 0 0 0 0 0 0 0 0 0 0 0 0 0 0 0
0 0 0 0 0 0 0 0 0 0 0 0 0 0 0 0 0 0 0 0 0 0 0 0 0 0 0 0 0 0 0 0 0 0 0 0 0 0
0 0 0 0 0 0 0 0 0 0 0 0 0 0 0 0 0 0 0 0 0 0 0 0 0 0 0 0 0 0 0 0 0 0 0 0 0 0
0 0 0 0 0 0 0 0 0 0 0 0 0 0 0 0 0 0 0 0 0 0 0 0 0 0 0 0 0 0 0 0 0 0 0 0 0 0
0 0 0 0 0 0 0 0 0 0 0 0 0 0 0 0 0 0 0 0 0 0 0 0 0 0 0 0 0 0 0 0 0 0 0 0 0 0
0 0 0 0 0 0 0 0 0 0 0 0 0 0 0 0 0 0 0 0 0 0 0 0 0 0 0 0 0 0 0 0 0 0 0 0 0 0
0 0 0 0 0 0 0 0 0 0 0 0 0 0 0 0 0 0 0 0 0 0 0 0 0 0 0 0 0 0 0 0 0 0 0 0 0 0
0 0 0 0 0 0 0 0 0 0 0 0 0 0 0 0 0 0 0 0 0 0 0 0 0 0 0 0 0 0 0 0 0 0 0 0 0 0
0 0 0 0 0 0 0 0 0 0 0 0 0 0 0 0 0 0 0 0 0 0 0 0 0 0 0 0 0 0 0 0 0 0 0 0 0 0
Wind_Speed
3 4 4 3 4 4 4 4 5 4 3 3 2 1 1 0 1 0 0 4 3 2 2 2 2 2 1 0 0 1 1 2 2 3 4 4 5 6
2 3 4 4 3 4 4 4 4 5 4 1 1 1 1 1 2 1 2 4 4 4 4 3 3 3 2 1 1 1 1 2 2 3 3 2 2 3
3 3 4 4 4 4 4 4 4 4 4 3 1 1 1 1 1 1 1 1 3 5 4 4 3 3 3 3 2 2 2 2 2 2 2 2 2 2
3 3 3 2 3 3 3 4 4 4 4 3 2 2 2 2 2 2 1 1 2 5 5 4 4 3 3 3 3 3 3 3 3 2 2 2 1 2
3 3 3 3 3 3 3 3 3 3 3 3 3 2 2 2 2 2 1 1 1 4 5 5 4 4 3 3 3 3 3 3 3 3 2 2 1 1
2 2 2 3 3 4 3 3 3 3 3 3 3 2 2 2 3 2 2 2 1 1 2 2 4 5 5 4 4 4 3 2 2 2 2 2 2 2
2 2 1 1 2 3 3 2 3 3 3 3 3 3 2 2 3 3 2 2 1 1 1 1 2 2 3 5 4 3 2 2 2 2 2 2 1 1
1 1 1 1 0 1 1 2 2 3 3 3 3 3 3 3 3 3 2 2 1 1 1 1 1 1 1 2 4 3 2 2 2 2 2 2 1 1
1 1 2 0 1 1 2 3 2 1 2 3 2 2 2 2 3 4 3 2 1 1 2 1 1 1 1 3 5 4 3 2 2 2 2 1 1 1
1 1 1 1 1 2 1 1 1 1 1 2 1 2 1 1 3 3 2 2 1 1 1 2 1 1 1 2 6 5 4 4 3 3 2 2 2 2
1 1 1 1 2 2 1 1 1 1 2 2 2 2 2 1 2 2 2 2 1 1 1 2 1 1 1 2 5 7 6 5 4 4 4 3 3 5
2 2 2 1 1 1 1 1 1 1 1 3 3 2 2 3 4 3 2 2 2 1 1 2 2 2 2 2 2 4 4 6 6 6 5 5 4 4
2 2 2 3 2 0 2 1 1 1 2 2 2 2 2 2 2 2 2 2 3 2 1 2 2 2 3 2 2 2 2 2 4 5 6 7 5 5
1 1 3 4 3 2 1 1 1 3 2 2 2 2 1 1 1 1 1 2 3 3 1 2 2 3 3 3 2 2 2 2 2 3 3 6 7 7
0 3 2 3 4 4 4 3 3 2 2 2 1 1 1 1 1 2 2 2 2 2 2 3 3 3 4 4 3 2 3 3 3 3 3 3 4 4
3 4 5 4 3 1 3 4 3 1 1 2 1 1 1 2 2 2 2 2 2 2 3 3 3 4 4 4 4 3 3 3 3 3 4 4 4 4
2 3 3 3 3 3 3 2 2 2 2 2 2 2 2 2 2 2 2 3 3 3 2 3 4 4 4 4 4 4 4 4 3 3 4 5 4 4
3 3 3 3 3 2 3 3 2 2 2 3 3 3 3 3 3 3 3 4 4 4 3 2 2 3 4 3 4 5 5 4 4 3 5 6 5 4
4 3 3 3 2 2 2 2 2 2 3 3 4 4 4 4 4 4 4 4 4 4 4 3 3 4 5 5 4 6 6 5 5 4 4 5 6 4
4 3 2 2 2 2 3 3 3 2 3 3 4 4 4 4 5 5 5 5 5 5 5 4 4 4 6 7 5 4 7 6 5 5 5 5 4 3
3 2 2 2 2 2 2 3 3 3 3 4 4 4 4 5 5 5 5 5 7 6 6 5 4 5 6 6 6 5 4 7 6 5 5 5 5 5
2 2 2 2 2 2 3 3 3 3 4 4 4 4 4 5 6 6 6 6 6 6 6 5 4 5 6 7 7 6 5 4 6 8 6 5 5 5
2 2 2 2 2 2 3 3 4 3 3 3 3 4 4 5 5 5 6 6 6 6 6 5 4 5 6 6 7 6 6 5 4 4 5 8 9 7
Wind_Direction
260 253 261 264 261 258 256 255 262 266 259 234 226 223 244 268 91 144 68 98 109 115 110 109 116 119 124 150 248 243 206 215 206 206 219 226 231 229
262 270 267 267 262 255 255 255 258 262 265 259 244 229 170 182 112 113 92 110 109 114 106 97 94 90 87 85 102 118 145 165 174 189 193 197 202 206
253 257 261 271 268 261 253 248 249 249 252 249 238 156 180 211 148 160 164 163 120 118 114 102 95 87 79 77 86 87 98 126 141 157 166 168 182 198
258 264 269 265 261 264 262 254 251 246 242 241 230 209 207 197 172 194 168 145 119 117 121 117 110 95 84 83 84 85 91 92 97 110 132 141 155 174
263 263 266 266 267 267 263 258 252 247 239 228 221 203 191 173 176 179 149 170 159 137 142 142 135 124 114 106 102 95 91 85 82 81 87 97 107 125
258 259 262 268 276 272 258 254 254 251 231 224 215 199 184 171 192 189 181 180 187 151 119 135 150 159 152 135 121 110 101 97 98 98 95 89 87 90
243 253 266 315 330 301 287 269 250 245 228 219 215 205 189 186 205 203 201 187 188 181 158 176 175 169 155 149 139 122 118 127 136 133 122 115 108 102
263 254 213 207 226 220 289 293 280 251 246 232 223 219 213 207 205 209 199 198 199 158 234 227 214 163 138 118 116 130 140 149 152 150 146 141 137 145
278 278 276 24 252 262 204 214 221 233 261 259 252 247 225 211 209 206 210 227 255 171 219 231 205 186 176 117 134 155 170 179 179 170 162 167 195 215
226 253 263 287 7 313 257 201 183 168 216 239 248 267 266 222 215 222 222 214 202 167 261 268 231 255 213 146 150 168 180 190 198 203 204 211 227 234
230 294 283 194 34 317 231 169 143 132 128 93 54 33 51 149 195 202 188 201 217 190 211 271 270 270 239 199 161 173 186 192 199 204 210 220 235 236
185 170 88 48 70 330 218 177 168 159 137 126 126 132 144 151 186 224 220 224 241 216 158 251 256 256 239 213 197 186 196 192 198 202 208 214 233 247
203 180 115 121 136 185 263 234 249 255 185 160 148 145 149 154 176 206 257 266 269 271 160 214 245 249 259 248 221 214 218 207 201 201 203 204 217 249
227 157 107 132 152 177 209 91 248 251 202 171 166 159 164 169 169 191 230 278 301 305 291 245 261 261 264 256 243 220 226 229 230 234 226 195 209 222
135 82 106 157 180 179 165 189 221 217 210 201 195 199 200 178 189 188 197 218 231 231 215 236 260 260 262 263 259 244 236 230 231 242 245 234 226 222
196 167 180 192 209 185 179 197 216 225 256 242 233 212 202 189 197 206 213 211 225 206 193 218 242 256 259 270 276 266 252 238 231 237 247 250 240 235
203 193 189 177 187 184 189 197 213 209 225 250 252 235 221 223 221 213 226 235 240 243 221 210 222 233 256 277 272 275 273 263 249 240 247 250 243 241
227 205 202 204 210 203 203 204 212 221 233 245 251 251 247 242 240 236 238 242 245 247 245 232 233 237 235 231 257 274 274 275 266 241 247 253 251 242
220 220 221 223 228 233 234 234 230 224 239 247 249 250 250 251 248 245 243 248 253 255 249 236 234 245 258 261 221 218 263 273 269 257 250 254 260 260
233 239 237 237 240 245 248 251 252 241 236 250 254 253 254 255 254 251 246 251 257 257 252 244 243 251 266 278 277 233 215 251 263 262 259 256 258 250
223 236 245 247 253 260 264 263 258 255 257 260 260 264 262 260 259 258 254 243 250 254 255 254 257 252 263 270 268 256 222 210 245 264 265 259 254 247
238 244 255 266 266 267 263 261 257 254 254 257 268 274 272 267 266 265 263 258 254 256 260 264 253 248 256 261 266 267 260 227 216 230 248 266 277 272
231 244 248 254 260 262 263 260 261 264 268 272 273 271 272 270 268 265 263 263 264 265 263 262 259 253 258 262 266 270 270 264 250 228 218 208 219 236